Location: UFOWorks Observatory
(42.1050°N, 72.2350°W)
Time: 19:03:26
(UTC-04:00)

ISS - Visible Passes

Search period start: 25 July 2014 00:00
Search period end: 04 August 2014 00:00
Orbit: 411 x 420 km, 51.6° (Epoch: 25 July)

Date Brightness Start Highest point End Pass type
(mag) Time Alt. Az. Time Alt. Az. Time Alt. Az.
25 Jul -1.3 02:14:22 30° NNE 02:14:22 30° NNE 02:16:20 10° NE visible
25 Jul -0.7 03:47:56 10° NW 03:50:20 18° N 03:52:45 10° NE visible
26 Jul -0.2 01:27:13 13° NE 01:27:13 13° NE 01:27:36 10° NE visible
26 Jul -1.0 03:00:05 17° NW 03:01:21 21° NNW 03:04:00 10° NE visible
26 Jul -0.4 04:36:44 10° NW 04:38:58 16° N 04:41:13 10° NE visible
27 Jul -1.1 02:12:55 25° N 02:12:55 25° N 02:15:18 10° NE visible
27 Jul -0.4 03:47:45 10° NW 03:49:57 16° N 03:52:08 10° NE visible
28 Jul -0.3 01:25:46 16° NE 01:25:46 16° NE 01:26:38 10° NE visible
28 Jul -0.4 02:58:40 10° NW 03:00:55 17° N 03:03:11 10° NE visible
28 Jul -0.6 04:35:56 10° NW 04:38:33 21° NNE 04:41:10 10° ENE visible
29 Jul -0.6 02:11:29 18° NNW 02:11:55 18° N 02:14:22 10° NE visible
29 Jul -0.4 03:47:11 10° NW 03:49:34 18° N 03:51:57 10° NE visible
30 Jul -0.3 01:24:21 17° NNE 01:24:21 17° NNE 01:25:39 10° NE visible
30 Jul -0.3 02:58:21 10° NW 03:00:34 16° N 03:02:48 10° NE visible
30 Jul -1.3 04:34:58 10° NW 04:38:03 32° NNE 04:41:08 10° E visible
31 Jul -0.3 02:10:09 13° NNW 02:11:34 16° N 02:13:45 10° NE visible
31 Jul -0.8 03:46:19 10° NW 03:49:09 24° NNE 03:51:59 10° ENE visible
01 Aug -0.2 01:23:12 16° N 01:23:12 16° N 01:24:52 10° NE visible
01 Aug -0.5 02:57:39 10° NW 03:00:13 20° NNE 03:02:47 10° ENE visible
01 Aug -2.9 04:34:02 10° NW 04:37:24 69° NNE 04:40:45 10° ESE visible
02 Aug -0.3 02:09:28 12° NNW 02:11:15 17° N 02:13:36 10° NE visible
02 Aug -2.0 03:45:22 10° NW 03:48:37 43° NNE 03:51:51 10° ESE visible
02 Aug -3.4 22:04:17 10° SW 22:07:37 82° SE 22:08:36 43° ENE visible
03 Aug 0.0 01:23:49 13° NE 01:23:49 13° NE 01:24:29 10° NE visible
03 Aug -1.3 02:56:50 11° NW 02:59:47 30° NNE 03:02:49 10° E visible
03 Aug -3.0 04:33:22 10° WNW 04:36:35 43° SW 04:39:48 10° SSE visible
03 Aug -3.1 21:15:45 10° SW 21:18:57 46° SE 21:22:10 10° ENE visible
03 Aug -1.3 22:52:48 10° W 22:55:47 29° NNW 22:57:45 17° NNE visible
